Flag Weather past 2 weeks in Owen Sound, Ontario, Canada

Now
23 °F

Snow flurries. Overcast.


Feels Like: 12 °F
Forecast: 19 / 25 °F
Wind: 12 mph from Northwest

Location: Wiarton

Current Time: Nov 27, 2014 at 10:39:48 PM

Latest Report: Nov 27, 2014 at 9:00 PM


Visibility: 4 mi

Pressure: 30.18 "Hg

Humidity: 80%

Dew point: 18 °F

Location of Owen SoundLocation

Historic Weather in Owen Sound — Graph

°F

Owen Sound temperature yesterday

Maximum temperature yesterday: 32 °F (at 12:00 AM)
Minimum temperature yesterday: 28 °F (at 9:00 PM)
Average temperature yesterday: 30 °F

Past Weeks' High & Low Weather Summary

 TemperatureHumidityPressure
High55 °F (Nov 24, 11:00 AM)100% (Nov 14, 12:00 AM)30.37 "Hg (Nov 14, 12:00 AM)
Low16 °F (Nov 21, 7:00 AM)46% (Nov 20, 2:00 PM)28.99 "Hg (Nov 24, 7:00 AM)
Average30 °F79%29.91 "Hg
* Reported Nov 12 9:00 PM — Nov 27 9:00 PM, Owen Sound, Weather by CustomWeather, © 2014

Note: Actual official high and low records may vary slightly from our data, if they occured in-between our weather recording intervals... More about our weather records

Advertising

Owen Sound weather history for previous 24 hours

 ConditionsComfort  
Time TempWeatherWind HumidityBarometerVisibility
9:00 PM
Nov 27
23 °FSnow flurries. Overcast.12 mph80%30.18 "Hg4 mi
8:00 PM25 °FSnow flurries. Overcast.10 mph86%30.17 "Hg5 mi
7:00 PM27 °FSnow flurries. Mostly cloudy.7 mph80%30.16 "Hg4 mi
6:00 PM25 °FSnow flurries. Ice fog.6 mph93%30.15 "Hg1 mi
5:50 PM27 °FSnow flurries. Ice fog.9 mph80%30.15 "Hg1 mi
5:00 PM27 °FPartly cloudy.7 mph80%30.14 "Hg12 mi
4:00 PM28 °FPartly sunny.6 mph80%30.13 "Hg12 mi
3:00 PM28 °FLight snow. Overcast.7 mph80%30.11 "Hg3 mi
2:00 PM28 °FLight snow. Overcast.5 mph86%30.10 "Hg2 mi
1:00 PM30 °FPartly sunny.5 mph69%30.10 "Hg15 mi
12:00 PM28 °FOvercast.5 mph74%30.10 "Hg15 mi
11:00 AM28 °FBroken clouds.5 mph80%30.11 "Hg15 mi
10:00 AM28 °FBroken clouds.8 mph74%30.11 "Hg15 mi
9:00 AM27 °FBroken clouds.5 mph80%30.11 "Hg15 mi
8:00 AM27 °FPartly sunny.6 mph74%30.10 "Hg15 mi
7:00 AM27 °FPassing clouds.6 mph86%30.09 "Hg15 mi
6:00 AM28 °FPartly cloudy.5 mph80%30.08 "Hg15 mi
5:00 AM28 °FPassing clouds.6 mph80%30.06 "Hg15 mi
4:00 AM28 °FSnow flurries. Passing clouds.3 mph80%30.08 "Hg15 mi
3:00 AM28 °FSnow flurries. Passing clouds.2 mph86%30.09 "Hg15 mi
2:00 AM28 °FSnow flurries. Overcast.5 mph86%30.09 "Hg12 mi
1:00 AM28 °FSnow flurries. Overcast.7 mph80%30.10 "Hg15 mi
12:00 AM28 °FSnow flurries. Overcast.6 mph80%30.11 "Hg15 mi
11:00 PM
Nov 26
28 °FSnow flurries. Mostly cloudy.8 mph86%30.11 "Hg10 mi
10:00 PM28 °FSnow flurries. Overcast.14 mph86%30.12 "Hg4 mi
Weather by CustomWeather, © 2014

See weather overviewHow to use our weather pages